CW9414 Weather Reports


time (UTC)temp
F
wind
direction
speed
knots
gust
knots
rain 1hr
in
rain 24hr
in
rain mn
in
humidity
%
barometer
mb
20260902234448 93 136 6.1 8.7 0.00 0.00 0.00 47 1007.3
20260902233447 94 82 2.6 9.6 0.00 0.00 0.00 47 1007.3
20260902232451 94 160 2.6 5.2 0.00 0.00 0.00 47 1007.2
20260902231447 95 160 0.0 10.4 0.00 0.00 0.00 48 1007.2
20260902230447 95 218 4.3 7.8 0.00 0.00 0.00 47 1007.2
20260902225447 96 126 0.0 6.1 0.00 0.00 0.00 46 1007.2
20260902224450 96 115 2.6 8.7 0.00 0.00 0.00 46 1007.2
20260902223451 97 152 0.9 6.1 0.00 0.00 0.00 45 1007.2
20260902222450 97 201 2.6 5.2 0.00 0.00 0.00 44 1007.2
20260902221448 98 148 1.7 5.2 0.00 0.00 0.00 42 1007.1
20260902220448 98 205 2.6 4.3 0.00 0.00 0.00 41 1007.2
20260902215450 99 178 0.9 5.2 0.00 0.00 0.00 41 1007.2
20260902214447 99 169 0.9 4.3 0.00 0.00 0.00 41 1007.3
20260902213447 99 165 1.7 4.3 0.00 0.00 0.00 42 1007.3
20260902212448 98 137 0.9 4.3 0.00 0.00 0.00 41 1007.7
20260902211447 98 165 1.7 7.0 0.00 0.00 0.00 40 1007.7
20260902210447 98 196 0.0 5.2 0.00 0.00 0.00 40 1007.7
20260902205447 99 141 2.6 11.3 0.00 0.00 0.00 39 1007.7
20260902204448 98 175 2.6 8.7 0.00 0.00 0.00 41 1007.9
20260902203448 98 157 2.6 7.8 0.00 0.00 0.00 40 1007.9
20260902202450 98 188 4.3 5.2 0.00 0.00 0.00 41 1008.0
20260902201447 98 200 0.0 7.8 0.00 0.00 0.00 41 1008.3
20260902200451 98 172 1.7 6.1 0.00 0.00 0.00 40 1008.3
20260902195447 98 246 3.5 7.8 0.00 0.00 0.00 42 1008.7
20260902194447 98 175 1.7 7.8 0.00 0.00 0.00 42 1008.9
20260902193447 98 144 2.6 5.2 0.00 0.00 0.00 42 1008.9
20260902192447 98 202 0.9 5.2 0.00 0.00 0.00 42 1009.1
20260902191447 98 171 1.7 5.2 0.00 0.00 0.00 43 1009.2
20260902190448 97 234 0.9 5.2 0.00 0.00 0.00 45 1009.2
20260902185447 96 123 0.9 7.8 0.00 0.00 0.00 46 1009.6
20260902184447 96 149 0.9 5.2 0.00 0.00 0.00 48 1009.8
20260902183450 95 246 1.7 5.2 0.00 0.00 0.00 50 1009.8
20260902182450 95 268 1.7 6.1 0.00 0.00 0.00 50 1009.9
20260902181447 95 238 0.9 6.1 0.00 0.00 0.00 50 1010.3
20260902180447 94 349 1.7 8.7 0.00 0.00 0.00 52 1010.3
20260902175450 93 260 1.7 7.8 0.00 0.00 0.00 53 1010.7
20260902174447 93 223 2.6 6.1 0.00 0.00 0.00 57 1010.8
20260902173451 80 202 0.0 0.0 0.00 0.00 0.00 88 1010.7
20260902172447 80 202 0.0 0.0 0.00 0.00 0.00 88 1011.0
20260902171447 80 202 0.0 0.0 0.00 0.00 0.00 88 1011.2
20260902170447 80 202 0.0 0.0 0.00 0.00 0.00 88 1011.2
20260902165450 80 202 0.0 0.0 0.00 0.00 0.00 88 1011.3
20260902164447 80 202 0.0 0.0 0.00 0.00 0.00 88 1011.5
20260902163447 80 202 0.0 0.0 0.00 0.00 0.00 88 1011.5
20260902162447 80 202 0.0 0.0 0.00 0.00 0.00 88 1011.6
20260902161447 80 202 0.0 0.0 0.00 0.00 0.00 88 1011.6
20260902160447 80 202 0.0 0.0 0.00 0.00 0.00 88 1011.6
20260902155447 80 202 0.0 0.0 0.00 0.00 0.00 88 1011.5
20260902154447 80 202 0.0 0.0 0.00 0.00 0.00 88 1011.5
20260902153447 80 202 0.0 0.0 0.00 0.00 0.00 88 1011.5
20260902152447 80 202 0.0 0.0 0.00 0.00 0.00 88 1011.3
20260902151450 80 202 0.0 0.0 0.00 0.00 0.00 88 1011.4
20260902150447 80 202 0.0 0.0 0.00 0.00 0.00 88 1011.4
20260902145447 80 202 0.0 0.0 0.00 0.00 0.00 88 1011.4
20260902144447 80 202 0.0 0.0 0.00 0.00 0.00 88 1011.3
20260902143447 80 202 0.0 0.0 0.00 0.00 0.00 88 1011.3
20260902142447 80 202 0.0 0.0 0.00 0.00 0.00 88 1011.3
20260902141447 80 202 0.0 0.0 0.00 0.00 0.00 88 1011.3
20260902140447 80 202 0.0 0.0 0.00 0.00 0.00 88 1011.3
20260902135447 80 202 0.0 0.0 0.00 0.00 0.00 88 1011.3
20260902134447 80 202 0.0 0.0 0.00 0.00 0.00 88 1011.3
20260902133450 80 202 0.0 0.0 0.00 0.00 0.00 88 1011.3
20260902132447 80 202 0.0 0.0 0.00 0.00 0.00 88 1011.2
20260902131447 80 202 0.0 0.0 0.00 0.00 0.00 88 1010.8
20260902130446 80 202 0.0 0.0 0.00 0.00 0.00 88 1010.8
20260902125450 80 202 0.0 0.0 0.00 0.00 0.00 88 1010.7
20260902124446 80 202 0.0 0.0 0.00 0.00 0.00 88 1010.2
20260902123450 80 202 0.0 0.0 0.00 0.00 0.00 88 1010.2
20260902122447 80 202 0.0 1.7 0.00 0.00 0.00 87 1009.7
20260902121447 80 200 0.0 1.7 0.00 0.00 0.00 86 1009.8
20260902120447 80 200 0.0 1.7 0.00 0.00 0.00 86 1009.8
20260902115446 80 200 0.0 2.6 0.00 0.00 0.00 86 1009.9
20260902114446 80 200 0.0 1.7 0.00 0.00 0.00 86 1009.9
20260902113447 81 200 0.0 1.7 0.00 0.00 0.00 86 1009.9
20260902112450 81 200 0.0 0.0 0.00 0.00 0.00 85 1009.8
20260902111447 81 200 0.0 0.9 0.00 0.00 0.00 85 1009.8
20260902110449 81 200 0.0 0.9 0.00 0.00 0.00 85 1009.8
20260902105447 81 200 0.0 0.9 0.00 0.00 0.00 85 1009.8
20260902104447 81 200 0.0 1.7 0.00 0.00 0.00 84 1009.8
20260902103446 81 200 0.0 2.6 0.00 0.00 0.00 84 1009.8
20260902102446 81 200 0.0 1.7 0.00 0.00 0.00 84 1009.7
20260902101446 81 200 0.0 0.0 0.00 0.00 0.00 83 1009.6
20260902100446 81 200 0.0 1.7 0.00 0.00 0.00 83 1009.6
20260902095446 81 200 0.9 2.6 0.00 0.00 0.00 83 1009.7
20260902094447 81 200 0.0 1.7 0.00 0.00 0.00 82 1009.7
20260902093446 81 200 0.0 0.9 0.00 0.00 0.00 82 1009.7
20260902092446 81 200 0.0 1.7 0.00 0.00 0.00 82 1009.7
20260902091447 81 201 0.0 2.6 0.00 0.00 0.00 82 1009.7
20260902090446 81 201 0.0 2.6 0.00 0.00 0.00 82 1009.7
20260902085449 81 201 0.0 1.7 0.00 0.00 0.00 81 1009.7
20260902084446 81 201 0.0 2.6 0.00 0.00 0.00 81 1009.7
20260902083446 81 200 0.0 2.6 0.00 0.00 0.00 81 1009.7
20260902082446 81 198 0.0 1.7 0.00 0.00 0.00 80 1009.7
20260902081447 82 198 0.0 3.5 0.00 0.00 0.00 79 1009.7
20260902080446 82 202 0.0 2.6 0.00 0.00 0.00 79 1009.7
20260902075447 82 267 0.9 2.6 0.00 0.00 0.00 79 1009.7
20260902074446 82 267 0.0 2.6 0.00 0.00 0.00 79 1009.7
20260902073447 82 268 0.0 2.6 0.00 0.00 0.00 79 1009.7
20260902072446 81 273 0.9 1.7 0.00 0.00 0.00 79 1009.8
20260902071449 81 273 0.0 1.7 0.00 0.00 0.00 79 1009.8
20260902070447 81 294 0.0 4.3 0.00 0.00 0.00 79 1009.8
20260902065447 81 51 0.0 1.7 0.00 0.00 0.00 79 1009.7
20260902064446 82 49 0.9 0.9 0.00 0.00 0.00 78 1009.7
20260902063447 82 48 0.0 1.7 0.00 0.00 0.00 76 1009.7
20260902062450 82 46 0.0 1.7 0.00 0.00 0.00 75 1009.7
20260902061449 82 46 0.0 0.0 0.00 0.00 0.00 74 1009.7
20260902060446 82 46 0.0 0.0 0.00 0.00 0.00 73 1009.7
20260902055446 82 46 0.0 0.0 0.00 0.00 0.00 72 1010.0
20260902054447 82 46 0.0 0.0 0.00 0.00 0.00 72 1009.9
20260902053450 82 46 0.0 0.0 0.00 0.00 0.00 71 1009.9
20260902052446 82 46 0.0 0.0 0.00 0.00 0.00 72 1009.9
20260902051447 82 46 0.0 0.0 0.00 0.00 0.00 71 1010.0
20260902050446 82 46 0.0 0.0 0.00 0.00 0.00 70 1010.0
20260902045446 82 46 0.0 0.0 0.00 0.00 0.00 70 1009.9
20260902044446 82 46 0.0 0.0 0.00 0.00 0.00 70 1009.7
20260902043446 82 46 0.0 0.0 0.00 0.00 0.00 69 1009.7
20260902042446 82 46 0.0 0.0 0.00 0.00 0.00 69 1010.0
20260902041446 82 46 0.0 0.0 0.00 0.00 0.00 69 1010.2
20260902040446 82 46 0.0 0.0 0.00 0.00 0.00 69 1010.2
20260902035446 83 46 0.0 0.0 0.00 0.00 0.00 69 1010.2
20260902034446 83 46 0.0 0.0 0.00 0.00 0.00 68 1010.2
20260902033447 83 46 0.0 0.0 0.00 0.00 0.00 68 1010.2
20260902032446 83 46 0.0 0.0 0.00 0.00 0.00 68 1010.1
20260902031446 83 46 0.0 0.0 0.00 0.00 0.00 68 1009.7
20260902030447 84 46 0.0 0.0 0.00 0.00 0.00 68 1009.7
20260902025450 84 46 0.0 0.0 0.00 0.00 0.00 68 1009.6
20260902024446 84 46 0.0 0.0 0.00 0.00 0.00 66 1009.5
20260902023446 84 46 0.0 0.0 0.00 0.00 0.00 67 1009.5
20260902022446 84 46 0.0 0.0 0.00 0.00 0.00 67 1009.3
20260902021446 85 46 0.0 0.0 0.00 0.00 0.00 65 1009.0
20260902020449 85 46 0.0 0.0 0.00 0.00 0.00 64 1009.0
20260902015446 85 46 0.0 0.0 0.00 0.00 0.00 63 1008.8
20260902014449 85 46 0.0 0.0 0.00 0.00 0.00 62 1008.6
20260902013446 85 46 0.0 0.0 0.00 0.00 0.00 61 1008.7
20260902012449 85 46 0.0 0.0 0.00 0.00 0.00 61 1008.7
20260902011446 86 46 0.0 0.0 0.00 0.00 0.00 61 1008.7
20260902010446 86 46 0.0 0.0 0.00 0.00 0.00 61 1008.7
20260902005446 86 46 0.0 0.0 0.00 0.00 0.00 60 1008.9
20260902004446 87 46 0.0 0.0 0.00 0.00 0.00 60 1008.8
20260902003449 87 46 0.0 0.0 0.00 0.00 0.00 60 1008.8
20260902002446 87 46 0.0 0.9 0.00 0.00 0.00 60 1008.7
20260902001446 88 46 0.0 0.9 0.00 0.00 0.00 61 1008.7
20260902000446 88 46 0.0 0.0 0.00 0.00 0.00 61 1008.7
20260901235449 89 46 0.0 1.7 0.00 0.00 0.00 60 1008.7